User: anonymous
Location: Unspecified
(0.0000°N, 0.0000°E)
Time: 09:58:43
(UTC+00:00)
Language:

OPTUS D2 - Orbit

View from above orbital plane
View from above orbital plane
View from above satellite
View from above satellite

Ground track
Ground track

The orbit data is extracted from the following two-line orbital elements,

1 32252U 07044A   14260.87008071 -.00000209  00000-0  00000+0 0  5068
2 32252 000.0065 230.5237 0003461 305.0024 286.4258 01.00271781 25466
Epoch (UTC): 17 September 2014 20:52:54
Eccentricity: 0.0003461
inclination: 0.0065°
perigee height: 35771 km
apogee height: 35801 km
right ascension of ascending node: 230.5237°
argument of perigee: 305.0024°
revolutions per day: 1.00271781
mean anomaly at epoch: 286.4258°
orbit number at epoch: 2546

The dashed part of the orbit path shows where the satellite is in the earth's shadow,  

DLR